EW5860 Weather Reports


time (UTC)temp
F
wind
direction
speed
knots
gust
knots
rain 1hr
in
rain 24hr
in
rain mn
in
humidity
%
barometer
mb
20260504184544 70 152 2.6 11.3 0.00 0.00 0.00 40 1010.5
20260504183042 70 189 4.3 8.7 0.00 0.00 0.00 40 1010.6
20260504181540 69 254 7.0 13.0 0.00 0.00 0.00 38 1011.0
20260504180038 69 88 2.6 10.4 0.00 0.00 0.00 37 1011.2
20260504174538 69 253 3.5 12.2 0.00 0.00 0.00 40 1011.4
20260504173039 68 152 5.2 10.4 0.00 0.00 0.00 38 1011.5
20260504171532 68 184 3.5 12.2 0.00 0.00 0.00 41 1011.8
20260504081512 49 200 3.5 7.0 0.00 0.00 0.00 51 1014.4
20260504044554 51 193 3.5 8.7 0.00 0.00 0.00 49 1014.3
20260504043056 51 209 2.6 8.7 0.00 0.00 0.00 50 1014.3
20260504041548 51 210 5.2 9.6 0.00 0.00 0.00 49 1014.1
20260504040046 51 212 4.3 8.7 0.00 0.00 0.00 50 1014.0
20260504034552 51 217 4.3 8.7 0.00 0.00 0.00 50 1013.8
20260504033043 51 176 3.5 7.0 0.00 0.00 0.00 49 1013.8
20260504031544 51 202 3.5 7.8 0.00 0.00 0.00 49 1013.8
20260504030042 51 206 3.5 6.1 0.00 0.00 0.00 50 1013.7
20260504024547 51 217 1.7 6.1 0.00 0.00 0.00 49 1013.7
20260504023041 52 202 1.7 5.2 0.00 0.00 0.00 48 1013.8
20260504021541 52 224 1.7 5.2 0.00 0.00 0.00 48 1013.8
20260504020042 51 205 0.9 2.6 0.00 0.00 0.00 52 1013.7
20260504014541 51 191 0.9 5.2 0.00 0.00 0.00 49 1013.6
20260504013054 51 156 0.9 4.3 0.00 0.00 0.00 49 1013.5
20260504011538 52 213 0.9 1.7 0.00 0.00 0.00 48 1013.5
20260504010040 53 222 0.9 2.6 0.00 0.00 0.00 46 1013.4
20260504004536 54 221 0.9 3.5 0.00 0.00 0.00 44 1013.3
20260504003036 55 223 0.9 3.5 0.00 0.00 0.00 42 1013.0
20260504001538 56 221 0.9 6.1 0.00 0.00 0.00 40 1012.8
20260504000034 57 223 0.9 3.5 0.00 0.00 0.00 39 1012.7
20260503234634 57 192 0.9 5.2 0.00 0.00 0.00 37 1012.5
20260503233033 59 240 1.7 7.8 0.00 0.00 0.00 36 1012.5
20260503231533 59 196 2.6 8.7 0.00 0.00 0.00 35 1012.4
20260503230041 59 188 4.3 13.0 0.00 0.00 0.00 34 1012.3
20260503224531 60 266 4.3 10.4 0.00 0.00 0.00 33 1012.2
20260503223030 60 261 3.5 7.8 0.00 0.00 0.00 34 1012.2
20260503221531 60 252 0.9 7.8 0.00 0.00 0.00 34 1012.2
20260503220028 60 213 4.3 11.3 0.00 0.00 0.00 33 1012.3
20260503214537 59 252 5.2 12.2 0.00 0.00 0.00 32 1012.3
20260503213028 60 224 2.6 9.6 0.00 0.00 0.00 33 1012.3
20260503211528 60 284 1.7 10.4 0.00 0.00 0.00 32 1012.2
20260503210025 59 266 6.1 13.9 0.00 0.00 0.00 31 1012.2
20260503204524 59 226 2.6 16.5 0.00 0.00 0.00 31 1012.2
20260503203032 59 263 3.5 11.3 0.00 0.00 0.00 31 1012.3
20260503201522 59 230 2.6 13.0 0.00 0.00 0.00 33 1012.4
20260503200020 58 262 7.0 13.0 0.00 0.00 0.00 33 1012.6
20260503194518 58 225 4.3 9.6 0.00 0.00 0.00 34 1012.7
20260503193033 57 320 7.0 19.1 0.00 0.00 0.00 34 1013.0
20260503191532 57 258 5.2 9.6 0.00 0.00 0.00 34 1013.0
20260503190025 56 261 5.2 14.8 0.00 0.00 0.00 36 1013.3